sat.trackr.live / text

‹ back to catalog

IRIDIUM 112

NORAD 41925 · 2017-003J

PAYLOAD ACTIVE UNKNOWN

§ Identity

Operator
Country
US
Launch date
2017-01-14
Launch site
AFWTR
Launch vehicle
Mass (kg)
RCS (m²)
2.65

Purposes: comms

External: N2YO · Heavens-Above · Gunter

§ Orbital elements

Epoch: 2026-05-25T02:38:18.320064Z

Period
100.40 min
Inclination
86.3947°
Eccentricity
0.0002358
Mean motion
14.34217659 rev/d
Perigee alt
776.0 km
Apogee alt
779.4 km
Semi-major
7,155.8 km
B*
3.7488e-6
RAAN
97.9548°
Arg perigee
87.9093°
Mean anomaly
272.2372°
Rev number
48,996

§ Raw data

IRIDIUM 1121 41925U 17003J   26145.10993426  .00000030  00000+0  37488-5 0  99912 41925  86.3947  97.9548 0002358  87.9093 272.2372 14.34217659489969

JSON: /api/v1/satellites/41925 · /tle

For live sub-satellite position, see the globe view (requires WebGL).

§ Visibility from observer

Set your observer location to see the next 7 days of passes ≥ 10°. The values pass through the URL so the page stays shareable.

No JS? Fill the form by hand. The geolocation button needs JavaScript.